Regional Weather Roundup
Issued by NWS Cleveland, OH

Home | Current Version | Previous Version | Graphics & Text | Print | Product List | Glossary On
Versions: 1 2 3 4 5 6 7 8 9 10 11 12 13 14 15 16 17 18 19 20 21 22 23 24 25 26 27 28 29 30 31 32 33 34 35 36 37 38 39 40 41 42 43 44 45 46 47 48 49 50
000
ASUS41 KCLE 302000
RWRCLE
OHIO REGIONAL WEATHER ROUNDUP
NATIONAL WEATHER SERVICE WILMINGTON, OH
400 PM EDT SUN AUG 30 2015

NOTE: "FAIR" INDICATES FEW OR NO CLOUDS BELOW 12,000 FEET WITH NO
SIGNIFICANT WEATHER AND/OR OBSTRUCTIONS TO VISIBILITY.

OHZ001>008-015>018-024>027-034-035-043-044-302100-
   NORTHWEST OHIO

CITY           SKY/WX    TMP DP  RH WIND       PRES   REMARKS
DEFIANCE       SUNNY     85  64  49 SW8       30.03F
FINDLAY        PTSUNNY   86  66  51 W7        30.03F
TOLEDO EXPRESS MOSUNNY   84  68  58 SW10      30.02F
TOLEDO EXEC    MOSUNNY   84  66  54 W12       30.03F
LIMA           MOSUNNY   80  66  62 S12       30.06S THUNDER
$$

OHZ009>014-019>023-028>033-038-089-302100-
   NORTHEAST OHIO

CITY           SKY/WX    TMP DP  RH WIND       PRES   REMARKS
CLE-HOPKINS    PTSUNNY   83  66  56 SW10      30.06F
CLE-LAKEFRONT  MOSUNNY   79  70  74 N3        30.03F
CUY CO. ARPT   PTSUNNY   82  72  69 W9        30.06F
LORAIN-ELYRIA  MOSUNNY   83  65  54 W8        30.05F
ASHTABULA      PTSUNNY   79  68  69 NW6       30.08F
AKRON-CANTON   PTSUNNY   82  65  56 W10       30.08F
WOOSTER        NOT AVBL
MANSFIELD      MOSUNNY   84  64  50 SW10      30.08F
YOUNGSTOWN     PTSUNNY   81  67  62 SW5       30.08F
$$

OHZ042-051>053-060>062-070>072-077>081-302100-
  SOUTHWEST OHIO

CITY           SKY/WX    TMP DP  RH WIND       PRES   REMARKS
CINC-COVINGTON PTSUNNY   86  64  47 S9        30.07F
CINC-LUNKEN    PTSUNNY   84  71  65 S8        30.05F
HAMILTON       MOSUNNY   83  70  64 W7G17     30.06F
DAYTON         NOT AVBL
WRIGHT-PAT AFB MOSUNNY   84  69  60 S8        30.05F
DAYTON GENERAL SUNNY     83  67  58 S7        30.06F
WILMINGTON     MOSUNNY   83  68  60 S8        30.07F
$$

OHZ036-037-039>041-045>050-054>059-063>069-073>076-082>088-302100-
  CENTRAL AND SOUTHEAST OHIO

CITY           SKY/WX    TMP DP  RH WIND       PRES   REMARKS
COLUMBUS       PTSUNNY   84  67  56 S8        30.05F
OSU AIRPORT    MOSUNNY   86  68  54 S7        30.06F
BOLTON FIELD   PTSUNNY   82  70  65 S6        30.07F
RICKENBACK AFB NOT AVBL
NEWARK         MOSUNNY   85  66  53 SW9       30.06F
MARION         MOSUNNY   84  67  56 S7        30.06F
LANCASTER      MOSUNNY   86  66  51 S9        30.07F
ZANESVILLE     PTSUNNY   88  64  44 SW9       30.06F
NEW PHILLY     MOSUNNY   85  67  54 S5        30.07F
$$


USA.gov is the U.S. government's official web portal to all federal, state and local government web resources and services.